Date String (YYYY-MM-DD hh:mm:ss) UTC,Instrument flags,absolute air pressure of the measurement (hPa),sample flow rate (lpm),inlet stack bypass flow (lpm),air temperature of the measurement (°C),ambient temperature measured by the external sensor (°C),aerosol sample conditioner tube jacket temperature (°C),OPC LED temperature (°C),internal box temperature (°C),relative humidity of the measurement (%),span deviation,mass concentration of particles derived from Lorenz-Mie calculation of OPC scattering (μg/m³),mass concentration of particles derived from Lorenz-Mie calculation of OPC scattering (μg/m³),mass concentration of particles derived from Lorenz-Mie calculation of OPC scattering (μg/m³)
DateTimeUTC,F1_M11,P_M11,Q1_M11,Q2_M11,T1_M11,T2_M11,T3_M11,T4_M11,T5_M11,U1_M11,ZSPAN_M11,X0_M11,X2_M11,X1_M11
2023-06-09 08:00:00,SystemResetWarning,0831.1,5.00,000.00,028.9,027.4,000.0,037.7,030.2,20.7,0000.0,0006.36,0002.97,0001.86
2023-06-09 08:01:00,SystemResetWarning,0831.1,5.00,000.00,028.9,027.4,000.0,037.7,030.2,20.8,0000.0,0006.25,0002.93,0001.84
2023-06-09 08:02:00,SystemResetWarning,0831.1,4.99,000.00,028.9,027.4,000.0,037.7,030.2,20.9,0000.0,0006.04,0002.88,0001.83
2023-06-09 08:03:00,SystemResetWarning,0831.1,4.99,000.00,028.9,027.4,000.0,037.7,030.2,20.6,0000.0,0005.88,0002.88,0001.83
2023-06-09 08:04:00,SystemResetWarning,0831.1,5.00,000.00,028.9,027.4,000.0,037.7,030.1,20.7,0000.0,0005.73,0002.82,0001.81
2023-06-09 08:05:00,SystemResetWarning,0831.1,5.01,000.00,028.9,027.4,000.0,037.6,030.1,20.5,0000.0,0005.93,0002.91,0001.81
2023-06-09 08:06:00,SystemResetWarning,0831.1,5.00,000.00,028.9,027.4,000.0,037.6,030.1,20.4,0000.0,0005.99,0002.88,0001.81
2023-06-09 08:07:00,SystemResetWarning,0831.1,5.01,000.00,028.9,027.4,000.0,037.6,030.1,20.8,0000.0,0005.96,0002.81,0001.79
2023-06-09 08:08:00,SystemResetWarning,0831.1,5.00,000.00,028.9,027.4,000.0,037.6,030.2,20.5,0000.0,0006.00,0002.80,0001.79
2023-06-09 08:09:00,SystemResetWarning,0831.1,4.99,000.00,028.9,027.5,000.0,037.6,030.2,20.2,0000.0,0005.82,0002.75,0001.80
2023-06-09 08:10:00,SystemResetWarning,0831.1,4.99,000.00,028.9,027.5,000.0,037.6,030.2,20.1,0000.0,0005.42,0002.72,0001.79
2023-06-09 08:11:00,SystemResetWarning,0831.0,5.00,000.00,028.9,027.5,000.0,037.6,030.2,20.0,0000.0,0005.13,0002.66,0001.76
2023-06-09 08:12:00,SystemResetWarning,0831.0,5.01,000.00,028.9,027.6,000.0,037.6,030.3,19.9,0000.0,0005.05,0002.62,0001.76
2023-06-09 08:13:00,SystemResetWarning,0831.0,5.00,000.00,028.9,027.6,000.0,037.6,030.3,19.8,0000.0,0005.00,0002.57,0001.76
2023-06-09 08:14:00,SystemResetWarning,0830.9,5.00,000.00,028.9,027.6,000.0,037.6,030.3,19.8,0000.0,0004.81,0002.53,0001.74
2023-06-09 08:15:00,SystemResetWarning,0830.9,4.99,000.00,028.9,027.6,000.0,037.6,030.3,20.0,0000.0,0004.75,0002.51,0001.75
2023-06-09 08:16:00,SystemResetWarning,0830.9,4.99,000.00,028.9,027.6,000.0,037.6,030.3,19.8,0000.0,0004.57,0002.46,0001.75
2023-06-09 08:17:00,SystemResetWarning,0830.9,5.01,000.00,028.9,027.6,000.0,037.6,030.3,19.9,0000.0,0004.54,0002.47,0001.74
2023-06-09 08:18:00,SystemResetWarning,0830.9,5.01,000.00,028.9,027.6,000.0,037.6,030.4,20.2,0000.0,0004.23,0002.44,0001.74
2023-06-09 08:19:00,SystemResetWarning,0830.9,5.00,000.00,029.0,027.6,000.0,037.6,030.5,20.5,0000.0,0004.12,0002.42,0001.75
2023-06-09 08:20:00,SystemResetWarning,0830.9,4.99,000.00,029.0,027.7,000.0,037.6,030.5,20.7,0000.0,0004.37,0002.46,0001.75
2023-06-09 08:21:00,SystemResetWarning,0830.9,5.00,000.00,029.0,027.7,000.0,037.6,030.5,20.6,0000.0,0004.25,0002.43,0001.75
2023-06-09 08:22:00,SystemResetWarning,0830.9,5.00,000.00,029.1,027.7,000.0,037.6,030.5,20.5,0000.0,0004.38,0002.46,0001.77
2023-06-09 08:23:00,SystemResetWarning,0830.8,4.99,000.00,029.1,027.7,000.0,037.6,030.6,20.3,0000.0,0004.44,0002.48,0001.77
2023-06-09 08:24:00,SystemResetWarning,0830.8,5.00,000.00,029.1,027.8,000.0,037.6,030.6,20.3,0000.0,0004.35,0002.47,0001.76
2023-06-09 08:25:00,SystemResetWarning,0830.8,5.00,000.00,029.1,027.8,000.0,037.6,030.6,20.1,0000.0,0004.31,0002.48,0001.76
2023-06-09 08:26:00,SystemResetWarning,0830.9,5.00,000.00,029.1,027.8,000.0,037.6,030.7,20.0,0000.0,0004.36,0002.50,0001.76
2023-06-09 08:27:00,SystemResetWarning,0830.8,4.99,000.00,029.2,027.8,000.0,037.7,030.7,19.9,0000.0,0004.35,0002.49,0001.75
2023-06-09 08:28:00,SystemResetWarning,0830.8,5.00,000.00,029.2,027.8,000.0,037.7,030.7,19.8,0000.0,0004.27,0002.44,0001.74
2023-06-09 08:29:00,SystemResetWarning,0830.7,5.00,000.00,029.2,027.8,000.0,037.7,030.7,19.6,0000.0,0004.72,0002.55,0001.75
2023-06-09 08:30:00,SystemResetWarning,0830.7,5.00,000.00,029.2,027.8,000.0,037.7,030.7,19.5,0000.0,0005.59,0002.56,0001.75
2023-06-09 08:31:00,SystemResetWarning,0830.7,4.99,000.00,029.2,027.8,000.0,037.7,030.7,19.6,0000.0,0005.34,0002.53,0001.75
2023-06-09 08:32:00,SystemResetWarning,0830.7,4.99,000.00,029.2,027.8,000.0,037.7,030.7,19.5,0000.0,0006.13,0002.61,0001.76
2023-06-09 08:33:00,SystemResetWarning,0830.7,5.00,000.00,029.3,027.8,000.0,037.7,030.7,19.4,0000.0,0006.15,0002.59,0001.75
2023-06-09 08:34:00,SystemResetWarning,0830.7,5.00,000.00,029.3,027.8,000.0,037.8,030.7,19.4,0000.0,0006.25,0002.66,0001.75
2023-06-09 08:35:00,SystemResetWarning,0830.6,5.00,000.00,029.3,027.8,000.0,037.8,030.7,19.2,0000.0,0006.63,0002.72,0001.76
2023-06-09 08:36:00,SystemResetWarning,0830.6,5.00,000.00,029.3,027.8,000.0,037.8,030.7,19.1,0000.0,0006.95,0002.74,0001.76
2023-06-09 08:37:00,SystemResetWarning,0830.5,5.01,000.00,029.3,027.8,000.0,037.8,030.7,19.0,0000.0,0007.01,0002.74,0001.76
2023-06-09 08:38:00,SystemResetWarning,0830.5,5.01,000.00,029.3,027.8,000.0,037.8,030.8,19.1,0000.0,0007.21,0002.77,0001.76
2023-06-09 08:39:00,SystemResetWarning,0830.5,5.00,000.00,029.3,027.8,000.0,037.8,030.8,19.1,0000.0,0007.16,0002.72,0001.75
2023-06-09 08:40:00,SystemResetWarning,0830.5,5.00,000.00,029.3,027.8,000.0,037.8,030.7,18.9,0000.0,0006.84,0002.63,0001.75
2023-06-09 08:41:00,SystemResetWarning,0830.4,5.00,000.00,029.3,027.8,000.0,037.8,030.7,18.9,0000.0,0005.91,0002.60,0001.73
2023-06-09 08:42:00,SystemResetWarning,0830.5,5.00,000.00,029.3,027.8,000.0,037.8,030.7,18.7,0000.0,0006.56,0002.58,0001.71
2023-06-09 08:43:00,SystemResetWarning,0830.6,4.99,000.00,029.3,027.8,000.0,037.8,030.7,18.6,0000.0,0005.72,0002.50,0001.70
2023-06-09 08:44:00,SystemResetWarning,0830.6,4.99,000.00,029.3,027.8,000.0,037.8,030.7,18.6,0000.0,0005.56,0002.47,0001.69
2023-06-09 08:45:00,SystemResetWarning,0830.4,5.00,000.00,029.3,027.8,000.0,037.8,030.6,18.6,0000.0,0005.48,0002.40,0001.67
2023-06-09 08:46:00,SystemResetWarning,0830.4,5.00,000.00,029.3,027.8,000.0,037.9,030.6,18.5,0000.0,0005.29,0002.38,0001.66
2023-06-09 08:47:00,SystemResetWarning,0830.4,5.00,000.00,029.2,027.7,000.0,037.9,030.5,18.3,0000.0,0005.05,0002.38,0001.66
2023-06-09 08:48:00,SystemResetWarning,0830.4,5.00,000.00,029.2,027.7,000.0,037.9,030.5,18.4,0000.0,0005.00,0002.35,0001.64
2023-06-09 08:49:00,SystemResetWarning,0830.4,5.00,000.00,029.2,027.7,000.0,037.9,030.5,18.4,0000.0,0004.90,0002.32,0001.65
2023-06-09 08:50:00,SystemResetWarning,0830.4,5.00,000.00,029.2,027.7,000.0,037.9,030.5,18.2,0000.0,0005.11,0002.35,0001.65
2023-06-09 08:51:00,SystemResetWarning,0830.4,5.01,000.00,029.2,027.7,000.0,037.9,030.5,18.3,0000.0,0005.38,0002.38,0001.66
2023-06-09 08:52:00,SystemResetWarning,0830.4,5.00,000.00,029.2,027.7,000.0,037.8,030.5,18.3,0000.0,0005.74,0002.40,0001.65
2023-06-09 08:53:00,SystemResetWarning,0830.4,4.99,000.00,029.2,027.7,000.0,037.8,030.5,18.2,0000.0,0005.31,0002.38,0001.64
2023-06-09 08:54:00,SystemResetWarning,0830.3,5.00,000.00,029.2,027.7,000.0,037.8,030.5,18.3,0000.0,0005.35,0002.40,0001.63
2023-06-09 08:55:00,SystemResetWarning,0830.3,5.00,000.00,029.2,027.7,000.0,037.8,030.5,18.4,0000.0,0006.70,0002.44,0001.63
2023-06-09 08:56:00,SystemResetWarning,0830.3,4.99,000.00,029.1,027.7,000.0,037.8,030.6,18.6,0000.0,0007.22,0002.50,0001.64
2023-06-09 08:57:00,SystemResetWarning,0830.3,5.00,000.00,029.1,027.7,000.0,037.8,030.6,18.6,0000.0,0007.26,0002.50,0001.64
2023-06-09 08:58:00,SystemResetWarning,0830.2,5.00,000.00,029.2,027.7,000.0,037.8,030.6,18.6,0000.0,0007.30,0002.42,0001.64
2023-06-09 08:59:00,SystemResetWarning,0830.2,5.00,000.00,029.2,027.7,000.0,037.8,030.6,18.3,0000.0,0007.21,0002.41,0001.65
